CZ-7 R/B, 61984

Orbit data source: Space-Track

CZ-7 R/B, 61984 is space debris in LEO originally from a launch on Fri, 15 Nov 2024 UTC launched from the Wenchang Satellite Launch Center (WSC). Debris objects in space refer to the collection of defunct objects orbiting the Earth. Examples of debris include non-operational satellites, rocket bodies, and fragments generated from explosions, collisions, or faulty payload assembly.

Not visible in the next 10 days
CZ-7 R/B details
Identifier
61984, 2024-211B
Orbit
LEO
Last TLE update4 hours ago
Origin
Flag of CNCNSA (CN / PRC)
ManufacturerCALT
MissionSpacecraft
Bus & MotorCZ-7 STAGE 2, Unknown motor
Mass6,000 kg wet, 6,000 kg dry
Launch date (UTC)
2024-11-15 (6 days ago)
Launch vehicleUnknown
Launch site
Wenchang Satellite Launch Center (WSC)
Object type
Payload
Rocket body
Debris
Shape & HBRUnknown
Radar Cross SectionLarge (>1 m²)

Expand to show TLE details & history

TLE from 4 hours ago
0 CZ-7 R/B
1 61984U 24211B   24326.09096557  .01821124  76157-5  61830-3 0  9997
2 61984  41.4482 203.7288 0072353 211.4551 270.9307 16.17743757   873
Epoch: 2024-11-21T02:10Z
Definitive object data (Epoch: 2024-11-21T02:10:59.425Z)
Latitude34.47572°
Longitude-120.22943°
Altitude226.385 km
Speed7.776 km/s
True Right ascension22h 12m 23s
True Declination34° 18' 09"
Sunlit
Object was in full shadow at TLE epoch
Visualization TLE readout
Latitude33.68624°
Longitude157.88604°
Altitude267.646 km
Speed7.727 km/s
Apparent Right ascension16h 06m 54s
Apparent Declination-2° 15' 25"
Sunlit
Object is in daylight
Visualization observer readout
Local Sidereal Time03:23:58
Azimuth342.764° N
Elevation-51.101°
Doppler factor1
Orbital elements
Apogee altitude275.773 km
Perigee altitude180.178 km
Semi-major axis6,606.113 km
Eccentricity0.0072353
Inclination41.4482°
RAAN203.7288°
Arg. of periapsis211.4551°
True anomaly270.10161°
Mean anomaly270.9307°
Eccentric anomaly270.51616°
Mean motion4.04226 °/min
BSTAR0.0006183
Orbital period89.06 mins
Loading maneuver chart data...
Loading historical data...
Loading historical data...
Loading historical data...
Loading historical data...
Loading historical data...
Loading historical data...
Loading historical data...
Other satellites on launch #211 in the year 2024 (2024-11-15 UTC)

CZ-7 R/B Visibility forecast

Observer location: undefined°, undefined

CZ-7 R/B is not visible in the next 10 days
Span
Click to sort rows by Start time (UTC) header in descending order
Start Az.
Max El. time (UTC)
Max El. Az.
Max El.
End time (UTC)
End Az.
|